Time,TemperatureF,DewpointF,PressureIn,WindDirection,WindDirectionDegrees,WindSpeedMPH,WindSpeedGustMPH,Humidity,HourlyPrecipIn,Conditions,Clouds,dailyrainin,SolarRadiationWatts/m^2,SoftwareType,DateUTC
2013-05-11 00:02:00,60.1,54.7,29.88,North,350,0.0,3.0,50,0.00,,,0.01,0.0,meteohub,2013-05-11 04:02:00,
2013-05-11 00:07:00,59.9,54.5,29.88,NW,315,1.0,3.0,50,0.00,,,0.00,0.0,meteohub,2013-05-11 04:07:00,
2013-05-11 00:12:00,59.9,54.5,29.88,NNW,327,2.0,4.0,50,0.00,,,0.00,0.0,meteohub,2013-05-11 04:12:00,
2013-05-11 00:17:00,59.7,54.9,29.88,NNW,333,1.0,4.0,51,0.00,,,0.00,0.0,meteohub,2013-05-11 04:17:00,
2013-05-11 00:22:00,59.7,55.0,29.88,WNW,294,1.0,5.0,51,0.00,,,0.00,0.0,meteohub,2013-05-11 04:22:00,
2013-05-11 00:27:00,59.5,55.0,29.87,West,280,4.0,6.0,51,0.00,,,0.00,0.0,meteohub,2013-05-11 04:27:00,
2013-05-11 00:32:00,59.4,55.0,29.87,NNW,344,2.0,8.0,51,0.00,,,0.00,0.0,meteohub,2013-05-11 04:32:00,
2013-05-11 00:37:00,59.4,55.0,29.88,NNW,341,3.0,8.0,51,0.00,,,0.00,0.0,meteohub,2013-05-11 04:37:00,
2013-05-11 00:42:00,59.2,54.5,29.87,NNW,327,2.0,6.0,50,0.00,,,0.00,0.0,meteohub,2013-05-11 04:42:00,
2013-05-11 00:47:00,59.0,54.7,29.88,NNW,339,1.0,6.0,50,0.00,,,0.00,0.0,meteohub,2013-05-11 04:47:00,
2013-05-11 00:52:00,58.8,54.0,29.88,NW,321,2.0,6.0,49,0.00,,,0.00,0.0,meteohub,2013-05-11 04:52:00,
2013-05-11 00:57:00,58.8,54.5,29.88,WNW,295,0.0,4.0,50,0.00,,,0.00,0.0,meteohub,2013-05-11 04:57:00,
2013-05-11 01:02:00,58.6,54.3,29.88,WNW,299,2.0,4.0,50,0.00,,,0.00,0.0,meteohub,2013-05-11 05:02:00,
2013-05-11 01:07:00,58.6,54.3,29.88,NNW,338,1.0,4.0,50,0.00,,,0.00,0.0,meteohub,2013-05-11 05:07:00,
2013-05-11 01:12:00,58.5,54.3,29.87,NNE,24,3.0,4.0,50,0.00,,,0.00,0.0,meteohub,2013-05-11 05:12:00,
2013-05-11 01:17:00,58.5,54.5,29.87,North,9,2.0,4.0,50,0.00,,,0.00,0.0,meteohub,2013-05-11 05:17:00,
2013-05-11 01:22:00,58.3,54.5,29.87,North,11,0.0,4.0,50,0.00,,,0.00,0.0,meteohub,2013-05-11 05:22:00,
2013-05-11 01:27:00,58.3,54.5,29.87,North,10,0.0,3.0,50,0.00,,,0.00,0.0,meteohub,2013-05-11 05:27:00,
2013-05-11 01:32:00,58.1,54.5,29.87,North,5,0.0,3.0,50,0.00,,,0.00,0.0,meteohub,2013-05-11 05:32:00,
2013-05-11 01:37:00,58.1,54.0,29.86,North,5,0.0,3.0,49,0.00,,,0.00,0.0,meteohub,2013-05-11 05:37:00,
2013-05-11 01:42:00,57.9,54.3,29.86,North,5,0.0,3.0,50,0.00,,,0.00,0.0,meteohub,2013-05-11 05:42:00,
2013-05-11 01:47:00,57.9,54.3,29.86,East,94,0.0,2.0,50,0.00,,,0.00,0.0,meteohub,2013-05-11 05:47:00,
2013-05-11 01:52:00,57.7,54.3,29.86,East,94,0.0,1.0,50,0.00,,,0.00,0.0,meteohub,2013-05-11 05:52:00,
2013-05-11 01:57:00,57.4,54.3,29.85,East,94,0.0,2.0,50,0.00,,,0.00,0.0,meteohub,2013-05-11 05:57:00,
2013-05-11 02:02:00,57.2,54.3,29.85,East,94,0.0,2.0,50,0.00,,,0.00,0.0,meteohub,2013-05-11 06:02:00,
2013-05-11 02:07:00,57.2,54.3,29.85,NNE,29,0.0,2.0,50,0.01,,,0.01,0.0,meteohub,2013-05-11 06:07:00,
2013-05-11 02:12:00,57.2,54.5,29.85,ENE,63,1.0,2.0,50,0.01,,,0.01,0.0,meteohub,2013-05-11 06:12:00,
2013-05-11 02:17:00,57.4,54.5,29.84,ENE,63,0.0,2.0,50,0.01,,,0.01,0.0,meteohub,2013-05-11 06:17:00,
2013-05-11 02:22:00,57.4,54.5,29.84,ENE,63,0.0,2.0,50,0.01,,,0.01,0.0,meteohub,2013-05-11 06:22:00,
2013-05-11 02:27:00,57.0,54.0,29.83,ENE,61,0.0,2.0,49,0.01,,,0.01,0.0,meteohub,2013-05-11 06:27:00,
2013-05-11 02:32:00,56.8,54.3,29.83,WNW,294,0.0,1.0,50,0.01,,,0.01,0.0,meteohub,2013-05-11 06:32:00,
2013-05-11 02:37:00,56.7,54.3,29.83,WNW,294,0.0,2.0,50,0.01,,,0.01,0.0,meteohub,2013-05-11 06:37:00,
2013-05-11 02:42:00,56.1,54.3,29.83,WNW,294,0.0,2.0,50,0.01,,,0.01,0.0,meteohub,2013-05-11 06:42:00,
2013-05-11 02:47:00,55.9,54.3,29.83,WNW,294,0.0,1.0,50,0.01,,,0.01,0.0,meteohub,2013-05-11 06:47:00,
2013-05-11 02:52:00,55.9,54.3,29.83,WNW,292,0.0,3.0,50,0.01,,,0.01,0.0,meteohub,2013-05-11 06:52:00,
2013-05-11 02:57:00,56.1,54.3,29.83,WNW,292,0.0,3.0,50,0.01,,,0.01,0.0,meteohub,2013-05-11 06:57:00,
2013-05-11 03:02:00,56.3,54.3,29.83,North,355,0.0,3.0,50,0.00,,,0.01,0.0,meteohub,2013-05-11 07:02:00,
2013-05-11 03:07:00,56.7,54.5,29.82,SSW,200,0.0,2.0,50,0.00,,,0.01,0.0,meteohub,2013-05-11 07:07:00,
2013-05-11 03:12:00,56.5,54.5,29.82,North,11,1.0,2.0,50,0.00,,,0.01,0.0,meteohub,2013-05-11 07:12:00,
2013-05-11 03:17:00,56.7,53.8,29.82,North,351,3.0,3.0,49,0.00,,,0.01,0.0,meteohub,2013-05-11 07:17:00,
2013-05-11 03:22:00,57.0,54.3,29.82,NNW,340,6.0,6.0,50,0.00,,,0.01,0.0,meteohub,2013-05-11 07:22:00,
2013-05-11 03:27:00,57.4,54.1,29.82,WNW,302,0.0,8.0,50,0.00,,,0.01,0.0,meteohub,2013-05-11 07:27:00,
2013-05-11 03:32:00,57.0,54.1,29.82,NNW,330,1.0,8.0,50,0.00,,,0.01,0.0,meteohub,2013-05-11 07:32:00,
2013-05-11 03:37:00,57.0,54.1,29.83,WSW,254,1.0,8.0,50,0.00,,,0.01,0.0,meteohub,2013-05-11 07:37:00,
2013-05-11 03:42:00,57.2,54.3,29.82,NNW,338,2.0,7.0,50,0.00,,,0.01,0.0,meteohub,2013-05-11 07:42:00,
2013-05-11 03:47:00,57.4,54.3,29.82,NNW,333,4.0,7.0,50,0.00,,,0.01,0.0,meteohub,2013-05-11 07:47:00,
2013-05-11 03:52:00,57.4,54.3,29.82,NW,318,1.0,5.0,50,0.00,,,0.01,0.0,meteohub,2013-05-11 07:52:00,
2013-05-11 03:57:00,57.4,54.3,29.82,WNW,298,2.0,5.0,50,0.00,,,0.01,0.0,meteohub,2013-05-11 07:57:00,
2013-05-11 04:02:00,57.4,54.3,29.82,NNW,329,2.0,5.0,50,0.00,,,0.01,0.0,meteohub,2013-05-11 08:02:00,
2013-05-11 04:07:00,57.6,54.5,29.82,NNW,332,2.0,5.0,50,0.00,,,0.01,0.0,meteohub,2013-05-11 08:07:00,
2013-05-11 04:12:00,57.6,54.0,29.82,WNW,298,0.0,4.0,49,0.00,,,0.01,0.0,meteohub,2013-05-11 08:12:00,
2013-05-11 04:17:00,57.6,53.8,29.82,WNW,300,1.0,4.0,49,0.00,,,0.01,0.0,meteohub,2013-05-11 08:17:00,
2013-05-11 04:22:00,57.7,54.1,29.82,NW,319,2.0,4.0,50,0.00,,,0.01,0.0,meteohub,2013-05-11 08:22:00,
2013-05-11 04:27:00,57.7,54.1,29.82,NNW,342,3.0,6.0,50,0.00,,,0.01,0.0,meteohub,2013-05-11 08:27:00,
2013-05-11 04:32:00,57.9,54.1,29.82,NNE,16,4.0,6.0,50,0.00,,,0.01,0.0,meteohub,2013-05-11 08:32:00,
2013-05-11 04:37:00,58.3,54.1,29.81,WNW,295,2.0,9.0,50,0.00,,,0.01,0.0,meteohub,2013-05-11 08:37:00,
2013-05-11 04:42:00,58.5,54.3,29.81,North,5,6.0,9.0,50,0.00,,,0.01,0.0,meteohub,2013-05-11 08:42:00,
2013-05-11 04:47:00,58.6,54.3,29.81,WNW,295,1.0,10.0,50,0.00,,,0.01,0.0,meteohub,2013-05-11 08:47:00,
2013-05-11 04:52:00,58.3,54.3,29.81,NW,320,1.0,10.0,50,0.00,,,0.01,0.0,meteohub,2013-05-11 08:52:00,
2013-05-11 04:57:00,57.9,54.3,29.81,NW,321,0.0,10.0,50,0.00,,,0.01,0.0,meteohub,2013-05-11 08:57:00,
2013-05-11 05:02:00,57.7,54.3,29.81,WNW,285,3.0,3.0,50,0.00,,,0.01,0.0,meteohub,2013-05-11 09:02:00,
2013-05-11 05:07:00,57.7,54.0,29.81,NNW,330,1.0,6.0,49,0.00,,,0.01,0.0,meteohub,2013-05-11 09:07:00,
2013-05-11 05:12:00,57.9,53.8,29.81,NW,311,1.0,6.0,49,0.00,,,0.01,0.0,meteohub,2013-05-11 09:12:00,
2013-05-11 05:17:00,57.9,53.6,29.81,NNW,337,1.0,4.0,49,0.00,,,0.01,0.0,meteohub,2013-05-11 09:17:00,
2013-05-11 05:22:00,57.9,54.1,29.81,North,0,2.0,5.0,50,0.00,,,0.01,0.0,meteohub,2013-05-11 09:22:00,
2013-05-11 05:27:00,57.9,54.1,29.81,NNW,336,1.0,5.0,50,0.00,,,0.01,0.0,meteohub,2013-05-11 09:27:00,
2013-05-11 05:32:00,57.9,54.1,29.81,NNW,340,3.0,5.0,50,0.00,,,0.01,0.0,meteohub,2013-05-11 09:32:00,
2013-05-11 05:37:00,57.7,54.1,29.81,NNW,340,0.0,3.0,50,0.00,,,0.01,0.0,meteohub,2013-05-11 09:37:00,
2013-05-11 05:42:00,57.7,54.3,29.81,NNW,332,0.0,3.0,50,0.00,,,0.01,0.0,meteohub,2013-05-11 09:42:00,
2013-05-11 05:47:00,57.7,54.3,29.81,NNW,332,0.0,3.0,50,0.00,,,0.01,0.0,meteohub,2013-05-11 09:47:00,
2013-05-11 05:52:00,57.7,54.3,29.81,WNW,285,0.0,3.0,50,0.00,,,0.01,0.0,meteohub,2013-05-11 09:52:00,
2013-05-11 05:57:00,57.7,53.8,29.81,North,351,1.0,4.0,49,0.00,,,0.01,0.0,meteohub,2013-05-11 09:57:00,
2013-05-11 06:02:00,57.7,53.8,29.81,North,5,2.0,4.0,49,0.00,,,0.01,0.0,meteohub,2013-05-11 10:02:00,
2013-05-11 06:07:00,57.7,53.8,29.80,NE,46,0.0,5.0,49,0.00,,,0.01,0.0,meteohub,2013-05-11 10:07:00,
2013-05-11 06:12:00,57.7,53.6,29.80,North,355,1.0,5.0,49,0.00,,,0.01,0.0,meteohub,2013-05-11 10:12:00,
2013-05-11 06:17:00,57.7,53.6,29.80,North,9,2.0,4.0,49,0.00,,,0.01,0.0,meteohub,2013-05-11 10:17:00,
2013-05-11 06:22:00,57.7,54.1,29.81,North,355,2.0,4.0,50,0.00,,,0.01,0.0,meteohub,2013-05-11 10:22:00,
2013-05-11 06:27:00,57.7,54.1,29.81,North,0,0.0,4.0,50,0.00,,,0.01,0.0,meteohub,2013-05-11 10:27:00,
2013-05-11 06:32:00,57.4,53.6,29.81,North,0,0.0,4.0,49,0.00,,,0.01,0.0,meteohub,2013-05-11 10:32:00,
2013-05-11 06:37:00,57.0,53.6,29.81,North,0,0.0,3.0,49,0.00,,,0.01,0.0,meteohub,2013-05-11 10:37:00,
2013-05-11 06:42:00,57.0,53.8,29.81,North,0,0.0,3.0,49,0.00,,,0.01,5.0,meteohub,2013-05-11 10:42:00,
2013-05-11 06:47:00,57.0,53.8,29.80,WNW,290,0.0,1.0,49,0.00,,,0.01,9.0,meteohub,2013-05-11 10:47:00,
2013-05-11 06:52:00,57.2,53.8,29.80,NW,311,0.0,3.0,49,0.00,,,0.01,14.0,meteohub,2013-05-11 10:52:00,
2013-05-11 06:57:00,57.6,53.8,29.80,North,355,1.0,3.0,49,0.00,,,0.01,16.0,meteohub,2013-05-11 10:57:00,
2013-05-11 07:02:00,57.7,53.8,29.80,NNW,332,1.0,3.0,49,0.00,,,0.01,26.0,meteohub,2013-05-11 11:02:00,
2013-05-11 07:07:00,57.9,53.2,29.80,West,281,1.0,3.0,48,0.00,,,0.01,33.0,meteohub,2013-05-11 11:07:00,
2013-05-11 07:12:00,57.9,53.8,29.80,NNW,331,1.0,3.0,49,0.00,,,0.01,39.0,meteohub,2013-05-11 11:12:00,
2013-05-11 07:17:00,57.9,53.6,29.80,NW,311,0.0,3.0,49,0.00,,,0.01,49.0,meteohub,2013-05-11 11:17:00,
2013-05-11 07:22:00,57.9,53.6,29.80,NNW,344,0.0,5.0,49,0.00,,,0.01,70.0,meteohub,2013-05-11 11:22:00,
2013-05-11 07:27:00,58.3,53.6,29.80,North,355,0.0,5.0,49,0.00,,,0.01,109.0,meteohub,2013-05-11 11:27:00,
2013-05-11 07:32:00,58.6,53.6,29.80,NW,325,2.0,5.0,49,0.00,,,0.01,127.0,meteohub,2013-05-11 11:32:00,
2013-05-11 07:37:00,59.0,53.6,29.80,West,261,0.0,3.0,49,0.00,,,0.01,63.0,meteohub,2013-05-11 11:37:00,
2013-05-11 07:42:00,59.2,53.6,29.80,NW,309,1.0,4.0,49,0.00,,,0.01,67.0,meteohub,2013-05-11 11:42:00,
2013-05-11 07:47:00,59.0,53.6,29.81,WNW,288,1.0,4.0,49,0.00,,,0.01,42.0,meteohub,2013-05-11 11:47:00,
2013-05-11 07:52:00,59.0,53.8,29.81,West,280,0.0,4.0,49,0.00,,,0.01,63.0,meteohub,2013-05-11 11:52:00,
2013-05-11 07:57:00,59.0,53.8,29.81,WNW,297,0.0,4.0,49,0.00,,,0.01,69.0,meteohub,2013-05-11 11:57:00,
2013-05-11 08:02:00,59.2,53.8,29.81,WNW,297,0.0,4.0,49,0.00,,,0.01,58.0,meteohub,2013-05-11 12:02:00,
2013-05-11 08:07:00,59.4,53.8,29.81,WNW,297,1.0,2.0,49,0.00,,,0.01,67.0,meteohub,2013-05-11 12:07:00,
2013-05-11 08:12:00,59.4,53.2,29.81,NNW,336,0.0,3.0,48,0.00,,,0.01,47.0,meteohub,2013-05-11 12:12:00,
2013-05-11 08:17:00,59.5,53.6,29.81,NW,304,2.0,3.0,49,0.00,,,0.01,69.0,meteohub,2013-05-11 12:17:00,
2013-05-11 08:22:00,59.5,53.6,29.81,WNW,286,0.0,3.0,49,0.00,,,0.01,60.0,meteohub,2013-05-11 12:22:00,
2013-05-11 08:27:00,59.5,53.6,29.81,NW,316,0.0,4.0,49,0.00,,,0.01,113.0,meteohub,2013-05-11 12:27:00,
2013-05-11 08:32:00,59.7,53.6,29.81,WSW,243,0.0,4.0,49,0.00,,,0.01,135.0,meteohub,2013-05-11 12:32:00,
2013-05-11 08:37:00,60.1,53.6,29.81,North,355,1.0,4.0,49,0.00,,,0.01,142.0,meteohub,2013-05-11 12:37:00,
2013-05-11 08:42:00,60.3,53.6,29.81,WNW,300,0.0,4.0,49,0.00,,,0.01,135.0,meteohub,2013-05-11 12:42:00,
2013-05-11 08:47:00,60.8,53.8,29.81,NW,311,2.0,5.0,49,0.00,,,0.01,156.0,meteohub,2013-05-11 12:47:00,
2013-05-11 08:52:00,61.2,53.8,29.81,North,355,4.0,5.0,49,0.00,,,0.01,151.0,meteohub,2013-05-11 12:52:00,
2013-05-11 08:57:00,61.3,53.8,29.81,NNW,333,1.0,7.0,49,0.00,,,0.01,202.0,meteohub,2013-05-11 12:57:00,
2013-05-11 09:02:00,61.7,53.8,29.81,NNW,340,3.0,7.0,49,0.00,,,0.01,221.0,meteohub,2013-05-11 13:02:00,
2013-05-11 09:07:00,62.2,53.2,29.81,NNW,340,4.0,7.0,48,0.00,,,0.01,236.0,meteohub,2013-05-11 13:07:00,
2013-05-11 09:12:00,62.4,53.1,29.81,NW,313,4.0,9.0,48,0.00,,,0.01,339.0,meteohub,2013-05-11 13:12:00,
2013-05-11 09:17:00,63.0,53.6,29.81,North,351,2.0,9.0,49,0.00,,,0.01,313.0,meteohub,2013-05-11 13:17:00,
2013-05-11 09:22:00,63.5,53.6,29.81,WNW,290,1.0,10.0,49,0.00,,,0.01,255.0,meteohub,2013-05-11 13:22:00,
2013-05-11 09:27:00,63.7,53.6,29.81,NNW,338,4.0,10.0,49,0.00,,,0.01,589.0,meteohub,2013-05-11 13:27:00,
2013-05-11 09:32:00,64.8,53.6,29.81,NW,307,5.0,10.0,49,0.00,,,0.01,287.0,meteohub,2013-05-11 13:32:00,
2013-05-11 09:37:00,64.9,53.6,29.81,West,270,3.0,9.0,49,0.00,,,0.01,694.0,meteohub,2013-05-11 13:37:00,
2013-05-11 09:42:00,65.8,53.8,29.81,NW,313,3.0,9.0,49,0.00,,,0.01,749.0,meteohub,2013-05-11 13:42:00,
2013-05-11 09:47:00,65.1,53.2,29.81,West,271,2.0,12.0,48,0.00,,,0.01,214.0,meteohub,2013-05-11 13:47:00,
2013-05-11 09:52:00,64.6,53.6,29.81,WSW,246,2.0,12.0,49,0.00,,,0.01,206.0,meteohub,2013-05-11 13:52:00,
2013-05-11 09:57:00,64.2,53.6,29.81,WSW,256,4.0,12.0,49,0.00,,,0.01,243.0,meteohub,2013-05-11 13:57:00,
2013-05-11 10:02:00,64.9,53.6,29.81,West,261,7.0,10.0,49,0.00,,,0.01,687.0,meteohub,2013-05-11 14:02:00,
2013-05-11 10:07:00,65.3,53.6,29.80,NW,313,3.0,11.0,49,0.00,,,0.01,612.0,meteohub,2013-05-11 14:07:00,
2013-05-11 10:12:00,66.4,53.6,29.80,WNW,282,8.0,11.0,49,0.00,,,0.01,761.0,meteohub,2013-05-11 14:12:00,
2013-05-11 10:17:00,66.6,53.8,29.80,SSW,202,1.0,11.0,49,0.00,,,0.01,707.0,meteohub,2013-05-11 14:17:00,
2013-05-11 10:22:00,66.9,53.2,29.81,NW,322,3.0,9.0,48,0.00,,,0.01,547.0,meteohub,2013-05-11 14:22:00,
2013-05-11 10:27:00,66.9,53.6,29.81,NW,318,2.0,9.0,49,0.00,,,0.01,364.0,meteohub,2013-05-11 14:27:00,
2013-05-11 10:32:00,66.2,53.6,29.80,WNW,291,3.0,10.0,49,0.00,,,0.01,401.0,meteohub,2013-05-11 14:32:00,
2013-05-11 10:37:00,65.8,53.6,29.80,NNW,348,5.0,10.0,49,0.00,,,0.01,387.0,meteohub,2013-05-11 14:37:00,
2013-05-11 10:42:00,65.8,53.6,29.80,NNW,340,4.0,10.0,49,0.00,,,0.01,357.0,meteohub,2013-05-11 14:42:00,
2013-05-11 10:47:00,65.7,53.8,29.80,NNW,330,4.0,9.0,49,0.00,,,0.01,279.0,meteohub,2013-05-11 14:47:00,
2013-05-11 10:52:00,65.7,53.8,29.80,WSW,246,2.0,9.0,49,0.00,,,0.01,294.0,meteohub,2013-05-11 14:52:00,
2013-05-11 10:57:00,65.5,53.2,29.80,WSW,250,4.0,8.0,48,0.00,,,0.01,311.0,meteohub,2013-05-11 14:57:00,
2013-05-11 11:02:00,65.3,53.6,29.80,SW,232,5.0,8.0,49,0.00,,,0.01,302.0,meteohub,2013-05-11 15:02:00,
2013-05-11 11:07:00,65.5,53.6,29.80,WSW,251,4.0,10.0,49,0.00,,,0.01,297.0,meteohub,2013-05-11 15:07:00,
2013-05-11 11:12:00,65.5,53.6,29.80,West,263,2.0,10.0,49,0.00,,,0.01,341.0,meteohub,2013-05-11 15:12:00,
2013-05-11 11:17:00,65.8,53.6,29.80,SSW,209,2.0,10.0,49,0.00,,,0.01,399.0,meteohub,2013-05-11 15:17:00,
2013-05-11 11:22:00,65.8,53.6,29.79,West,271,7.0,9.0,49,0.00,,,0.01,510.0,meteohub,2013-05-11 15:22:00,
2013-05-11 11:27:00,66.9,53.8,29.79,West,279,0.0,9.0,49,0.00,,,0.01,777.0,meteohub,2013-05-11 15:27:00,
2013-05-11 11:32:00,67.8,53.8,29.80,West,261,2.0,9.0,49,0.00,,,0.01,664.0,meteohub,2013-05-11 15:32:00,
2013-05-11 11:37:00,68.4,53.8,29.80,WNW,293,2.0,10.0,49,0.00,,,0.01,809.0,meteohub,2013-05-11 15:37:00,
2013-05-11 11:42:00,68.5,53.1,29.80,NW,323,5.0,10.0,48,0.00,,,0.01,888.0,meteohub,2013-05-11 15:42:00,
2013-05-11 11:47:00,68.0,53.6,29.80,West,281,3.0,10.0,49,0.00,,,0.01,413.0,meteohub,2013-05-11 15:47:00,
2013-05-11 11:52:00,67.3,53.6,29.80,West,277,4.0,10.0,49,0.00,,,0.01,439.0,meteohub,2013-05-11 15:52:00,
2013-05-11 11:57:00,67.3,53.6,29.80,WNW,296,3.0,10.0,49,0.00,,,0.01,281.0,meteohub,2013-05-11 15:57:00,
2013-05-11 12:02:00,66.9,53.6,29.80,SW,234,1.0,7.0,49,0.00,,,0.01,309.0,meteohub,2013-05-11 16:02:00,
2013-05-11 12:07:00,66.6,53.8,29.79,West,273,5.0,7.0,49,0.00,,,0.01,272.0,meteohub,2013-05-11 16:07:00,
2013-05-11 12:12:00,66.0,53.8,29.80,West,278,2.0,8.0,49,0.00,,,0.01,285.0,meteohub,2013-05-11 16:12:00,
2013-05-11 12:17:00,65.8,53.2,29.79,NW,311,4.0,9.0,48,0.00,,,0.01,445.0,meteohub,2013-05-11 16:17:00,
2013-05-11 12:22:00,66.6,53.6,29.80,WNW,294,1.0,10.0,49,0.00,,,0.01,318.0,meteohub,2013-05-11 16:22:00,
2013-05-11 12:27:00,66.6,53.6,29.80,NW,305,5.0,10.0,49,0.00,,,0.01,297.0,meteohub,2013-05-11 16:27:00,
2013-05-11 12:32:00,66.0,53.6,29.80,WSW,246,1.0,11.0,49,0.00,,,0.01,450.0,meteohub,2013-05-11 16:32:00,
2013-05-11 12:37:00,66.6,53.6,29.79,WNW,288,3.0,11.0,49,0.00,,,0.01,705.0,meteohub,2013-05-11 16:37:00,
2013-05-11 12:42:00,67.6,53.6,29.80,WSW,242,7.0,11.0,49,0.00,,,0.01,932.0,meteohub,2013-05-11 16:42:00,
2013-05-11 12:47:00,68.5,53.8,29.79,NW,309,4.0,9.0,49,0.00,,,0.01,645.0,meteohub,2013-05-11 16:47:00,
2013-05-11 12:52:00,68.7,53.8,29.80,NW,306,2.0,9.0,49,0.00,,,0.01,803.0,meteohub,2013-05-11 16:52:00,
2013-05-11 12:57:00,69.1,53.8,29.79,West,268,9.0,9.0,49,0.00,,,0.01,863.0,meteohub,2013-05-11 16:57:00,
2013-05-11 13:02:00,69.1,53.1,29.79,WSW,245,2.0,10.0,48,0.00,,,0.01,858.0,meteohub,2013-05-11 17:02:00,
2013-05-11 13:07:00,69.1,53.6,29.79,North,355,3.0,10.0,49,0.00,,,0.01,875.0,meteohub,2013-05-11 17:07:00,
2013-05-11 13:12:00,69.1,53.6,29.78,West,273,8.0,12.0,49,0.00,,,0.01,904.0,meteohub,2013-05-11 17:12:00,
2013-05-11 13:17:00,70.3,53.6,29.78,West,267,2.0,12.0,49,0.00,,,0.01,722.0,meteohub,2013-05-11 17:17:00,
2013-05-11 13:22:00,69.6,53.6,29.78,WSW,254,4.0,11.0,49,0.00,,,0.01,390.0,meteohub,2013-05-11 17:22:00,
2013-05-11 13:27:00,68.7,53.8,29.78,SW,236,3.0,11.0,49,0.00,,,0.01,378.0,meteohub,2013-05-11 17:27:00,
2013-05-11 13:32:00,68.2,53.8,29.78,West,275,2.0,11.0,49,0.00,,,0.01,464.0,meteohub,2013-05-11 17:32:00,
2013-05-11 13:37:00,68.2,53.2,29.78,West,263,4.0,10.0,48,0.00,,,0.01,383.0,meteohub,2013-05-11 17:37:00,
2013-05-11 13:42:00,67.8,53.1,29.79,SW,223,3.0,9.0,48,0.00,,,0.01,506.0,meteohub,2013-05-11 17:42:00,
2013-05-11 13:47:00,68.4,53.6,29.78,SW,232,3.0,9.0,49,0.00,,,0.01,675.0,meteohub,2013-05-11 17:47:00,
2013-05-11 13:52:00,68.5,53.6,29.78,SSW,212,3.0,9.0,49,0.00,,,0.01,622.0,meteohub,2013-05-11 17:52:00,
2013-05-11 13:57:00,68.5,53.6,29.78,WNW,286,3.0,8.0,49,0.00,,,0.01,432.0,meteohub,2013-05-11 17:57:00,
2013-05-11 14:02:00,68.4,53.6,29.78,SSW,192,3.0,8.0,49,0.00,,,0.01,390.0,meteohub,2013-05-11 18:02:00,
2013-05-11 14:07:00,68.7,53.8,29.78,NW,305,5.0,8.0,49,0.00,,,0.01,417.0,meteohub,2013-05-11 18:07:00,
2013-05-11 14:12:00,69.1,53.8,29.78,WNW,283,3.0,8.0,49,0.00,,,0.01,519.0,meteohub,2013-05-11 18:12:00,
2013-05-11 14:17:00,69.1,53.2,29.77,WSW,256,2.0,8.0,48,0.00,,,0.01,504.0,meteohub,2013-05-11 18:17:00,
2013-05-11 14:22:00,69.3,53.6,29.77,WNW,287,6.0,8.0,49,0.00,,,0.01,710.0,meteohub,2013-05-11 18:22:00,
2013-05-11 14:27:00,69.8,53.6,29.77,WNW,285,8.0,8.0,49,0.00,,,0.01,700.0,meteohub,2013-05-11 18:27:00,
2013-05-11 14:32:00,69.4,53.6,29.76,WSW,250,7.0,8.0,49,0.00,,,0.01,490.0,meteohub,2013-05-11 18:32:00,
2013-05-11 14:37:00,69.6,53.6,29.77,NW,304,4.0,9.0,49,0.00,,,0.01,766.0,meteohub,2013-05-11 18:37:00,
2013-05-11 14:42:00,70.0,53.8,29.77,NW,321,5.0,9.0,49,0.00,,,0.01,817.0,meteohub,2013-05-11 18:42:00,
2013-05-11 14:47:00,70.2,53.8,29.77,WSW,242,6.0,9.0,49,0.00,,,0.01,679.0,meteohub,2013-05-11 18:47:00,
2013-05-11 14:52:00,70.5,53.8,29.77,SSE,161,2.0,9.0,49,0.00,,,0.01,694.0,meteohub,2013-05-11 18:52:00,
2013-05-11 14:57:00,70.2,53.1,29.76,SW,217,2.0,12.0,48,0.00,,,0.01,731.0,meteohub,2013-05-11 18:57:00,
2013-05-11 15:02:00,70.5,53.6,29.76,South,176,3.0,12.0,49,0.00,,,0.01,779.0,meteohub,2013-05-11 19:02:00,
2013-05-11 15:07:00,70.2,53.6,29.76,SSE,155,4.0,12.0,49,0.00,,,0.01,624.0,meteohub,2013-05-11 19:07:00,
2013-05-11 15:12:00,69.8,53.6,29.76,WSW,256,2.0,12.0,49,0.00,,,0.01,615.0,meteohub,2013-05-11 19:12:00,
2013-05-11 15:17:00,70.3,53.6,29.76,SW,227,5.0,12.0,49,0.00,,,0.01,441.0,meteohub,2013-05-11 19:17:00,
2013-05-11 15:22:00,70.2,53.8,29.76,WSW,251,6.0,12.0,49,0.00,,,0.01,524.0,meteohub,2013-05-11 19:22:00,
2013-05-11 15:27:00,69.6,53.8,29.76,NNW,346,4.0,10.0,49,0.00,,,0.01,448.0,meteohub,2013-05-11 19:27:00,
2013-05-11 15:32:00,69.4,53.2,29.76,WSW,256,4.0,10.0,48,0.00,,,0.01,557.0,meteohub,2013-05-11 19:32:00,
2013-05-11 15:37:00,70.0,53.6,29.75,North,9,3.0,10.0,49,0.00,,,0.01,487.0,meteohub,2013-05-11 19:37:00,
2013-05-11 15:42:00,70.9,53.4,29.75,SW,215,0.0,10.0,49,0.00,,,0.01,536.0,meteohub,2013-05-11 19:42:00,
2013-05-11 15:47:00,70.9,53.6,29.75,WSW,246,5.0,9.0,49,0.00,,,0.01,724.0,meteohub,2013-05-11 19:47:00,
2013-05-11 15:52:00,70.5,53.6,29.74,West,265,6.0,9.0,49,0.00,,,0.01,397.0,meteohub,2013-05-11 19:52:00,
2013-05-11 15:57:00,70.9,53.6,29.74,WSW,249,6.0,9.0,49,0.00,,,0.01,682.0,meteohub,2013-05-11 19:57:00,
2013-05-11 16:02:00,71.1,53.6,29.74,WNW,297,2.0,9.0,49,0.00,,,0.01,587.0,meteohub,2013-05-11 20:02:00,
2013-05-11 16:07:00,70.9,53.8,29.74,WNW,284,4.0,9.0,49,0.00,,,0.01,570.0,meteohub,2013-05-11 20:07:00,
2013-05-11 16:12:00,71.1,53.2,29.73,SW,214,3.0,9.0,48,0.00,,,0.01,633.0,meteohub,2013-05-11 20:12:00,
2013-05-11 16:17:00,70.5,53.6,29.74,NNW,333,3.0,10.0,49,0.00,,,0.01,374.0,meteohub,2013-05-11 20:17:00,
2013-05-11 16:22:00,71.2,53.6,29.74,NW,326,5.0,13.0,49,0.00,,,0.01,1114.0,meteohub,2013-05-11 20:22:00,
2013-05-11 16:27:00,72.7,53.6,29.74,West,281,7.0,13.0,49,0.00,,,0.01,367.0,meteohub,2013-05-11 20:27:00,
2013-05-11 16:32:00,71.4,53.6,29.74,WNW,294,10.0,13.0,49,0.00,,,0.01,272.0,meteohub,2013-05-11 20:32:00,
2013-05-11 16:37:00,70.5,53.6,29.74,NNW,329,4.0,12.0,49,0.00,,,0.01,190.0,meteohub,2013-05-11 20:37:00,
2013-05-11 16:42:00,70.0,53.6,29.73,West,273,2.0,12.0,49,0.00,,,0.01,158.0,meteohub,2013-05-11 20:42:00,
2013-05-11 16:47:00,69.4,53.8,29.74,West,278,4.0,12.0,49,0.00,,,0.01,88.0,meteohub,2013-05-11 20:47:00,
2013-05-11 16:52:00,68.9,53.2,29.74,WNW,292,7.0,12.0,48,0.00,,,0.01,69.0,meteohub,2013-05-11 20:52:00,
2013-05-11 16:57:00,68.0,53.6,29.74,NW,321,14.0,14.0,49,0.00,,,0.01,54.0,meteohub,2013-05-11 20:57:00,
2013-05-11 17:02:00,66.9,53.6,29.74,WNW,295,4.0,15.0,49,0.00,,,0.01,65.0,meteohub,2013-05-11 21:02:00,
2013-05-11 17:07:00,66.0,53.6,29.74,NW,309,6.0,15.0,49,0.00,,,0.01,121.0,meteohub,2013-05-11 21:07:00,
2013-05-11 17:12:00,65.7,53.6,29.74,NW,325,3.0,15.0,49,0.00,,,0.01,156.0,meteohub,2013-05-11 21:12:00,
2013-05-11 17:17:00,65.1,53.6,29.74,NNW,346,1.0,13.0,49,0.00,,,0.01,146.0,meteohub,2013-05-11 21:17:00,
2013-05-11 17:22:00,64.9,53.6,29.75,West,279,4.0,13.0,49,0.00,,,0.01,146.0,meteohub,2013-05-11 21:22:00,
2013-05-11 17:27:00,64.6,53.8,29.75,NW,316,0.0,12.0,49,0.00,,,0.01,178.0,meteohub,2013-05-11 21:27:00,
2013-05-11 17:32:00,64.2,53.2,29.75,WNW,290,3.0,10.0,48,0.00,,,0.01,171.0,meteohub,2013-05-11 21:32:00,
2013-05-11 17:37:00,64.2,53.1,29.75,WSW,253,5.0,9.0,48,0.00,,,0.01,171.0,meteohub,2013-05-11 21:37:00,
2013-05-11 17:42:00,64.0,53.4,29.75,West,267,0.0,9.0,49,0.00,,,0.01,104.0,meteohub,2013-05-11 21:42:00,
2013-05-11 17:47:00,63.9,53.4,29.75,WNW,290,1.0,9.0,49,0.00,,,0.01,70.0,meteohub,2013-05-11 21:47:00,
2013-05-11 17:52:00,63.3,53.6,29.76,WNW,284,2.0,9.0,49,0.00,,,0.01,111.0,meteohub,2013-05-11 21:52:00,
2013-05-11 17:57:00,63.0,53.6,29.75,NW,325,2.0,5.0,49,0.00,,,0.01,153.0,meteohub,2013-05-11 21:57:00,
2013-05-11 18:02:00,62.6,53.6,29.75,West,275,3.0,5.0,49,0.00,,,0.01,142.0,meteohub,2013-05-11 22:02:00,
2013-05-11 18:07:00,62.4,53.6,29.75,West,274,1.0,5.0,49,0.00,,,0.01,109.0,meteohub,2013-05-11 22:07:00,
2013-05-11 18:12:00,62.2,53.8,29.75,West,273,1.0,6.0,49,0.00,,,0.01,111.0,meteohub,2013-05-11 22:12:00,
2013-05-11 18:17:00,62.2,53.8,29.75,West,277,4.0,6.0,49,0.00,,,0.01,167.0,meteohub,2013-05-11 22:17:00,
2013-05-11 18:22:00,62.4,53.8,29.75,WNW,284,0.0,6.0,49,0.00,,,0.01,148.0,meteohub,2013-05-11 22:22:00,
2013-05-11 18:27:00,62.8,53.1,29.75,WNW,290,3.0,6.0,48,0.00,,,0.01,155.0,meteohub,2013-05-11 22:27:00,
2013-05-11 18:32:00,63.0,53.4,29.75,West,259,2.0,9.0,49,0.00,,,0.01,137.0,meteohub,2013-05-11 22:32:00,
2013-05-11 18:37:00,63.0,53.4,29.75,North,355,3.0,9.0,49,0.00,,,0.01,120.0,meteohub,2013-05-11 22:37:00,
2013-05-11 18:42:00,62.8,53.4,29.75,WSW,242,2.0,9.0,49,0.00,,,0.01,139.0,meteohub,2013-05-11 22:42:00,
2013-05-11 18:47:00,63.0,53.4,29.75,NW,319,2.0,6.0,49,0.00,,,0.01,118.0,meteohub,2013-05-11 22:47:00,
2013-05-11 18:52:00,63.0,53.6,29.75,WNW,287,6.0,6.0,49,0.00,,,0.01,100.0,meteohub,2013-05-11 22:52:00,
2013-05-11 18:57:00,62.8,53.6,29.75,SW,235,4.0,8.0,49,0.00,,,0.01,88.0,meteohub,2013-05-11 22:57:00,
2013-05-11 19:02:00,62.4,53.6,29.75,NW,326,4.0,8.0,49,0.00,,,0.01,62.0,meteohub,2013-05-11 23:02:00,
2013-05-11 19:07:00,62.2,53.6,29.75,WSW,245,3.0,8.0,49,0.00,,,0.01,40.0,meteohub,2013-05-11 23:07:00,
2013-05-11 19:12:00,61.9,53.8,29.75,WNW,294,10.0,15.0,49,0.00,,,0.01,28.0,meteohub,2013-05-11 23:12:00,
2013-05-11 19:17:00,61.5,53.6,29.75,West,266,4.0,15.0,49,0.00,,,0.01,33.0,meteohub,2013-05-11 23:17:00,
2013-05-11 19:22:00,61.3,53.4,29.75,NNW,336,4.0,15.0,49,0.00,,,0.01,46.0,meteohub,2013-05-11 23:22:00,
2013-05-11 19:27:00,61.2,53.4,29.75,WNW,297,2.0,10.0,49,0.00,,,0.01,65.0,meteohub,2013-05-11 23:27:00,
2013-05-11 19:32:00,61.0,53.4,29.74,WSW,254,0.0,12.0,49,0.00,,,0.01,88.0,meteohub,2013-05-11 23:32:00,
2013-05-11 19:37:00,61.0,53.4,29.75,West,259,1.0,12.0,49,0.00,,,0.01,51.0,meteohub,2013-05-11 23:37:00,
2013-05-11 19:42:00,61.0,53.6,29.75,North,355,5.0,7.0,49,0.00,,,0.01,42.0,meteohub,2013-05-11 23:42:00,
2013-05-11 19:47:00,61.0,53.6,29.75,NW,311,2.0,6.0,49,0.00,,,0.01,60.0,meteohub,2013-05-11 23:47:00,
2013-05-11 19:52:00,61.0,53.6,29.75,West,271,3.0,6.0,49,0.00,,,0.01,42.0,meteohub,2013-05-11 23:52:00,
2013-05-11 19:57:00,60.8,53.6,29.75,NW,326,5.0,6.0,49,0.00,,,0.01,32.0,meteohub,2013-05-11 23:57:00,
2013-05-11 20:02:00,60.6,53.6,29.75,WNW,300,2.0,6.0,49,0.00,,,0.01,32.0,meteohub,2013-05-12 00:02:00,
2013-05-11 20:07:00,60.4,53.6,29.75,NW,325,0.0,6.0,49,0.00,,,0.01,21.0,meteohub,2013-05-12 00:07:00,
2013-05-11 20:12:00,60.3,53.4,29.75,NNW,340,0.0,5.0,49,0.00,,,0.01,19.0,meteohub,2013-05-12 00:12:00,
2013-05-11 20:17:00,60.3,53.4,29.76,NNW,329,1.0,5.0,49,0.00,,,0.01,16.0,meteohub,2013-05-12 00:17:00,
2013-05-11 20:22:00,60.1,53.4,29.76,West,275,1.0,5.0,49,0.00,,,0.01,9.0,meteohub,2013-05-12 00:22:00,
2013-05-11 20:27:00,59.9,53.4,29.76,North,351,0.0,5.0,49,0.00,,,0.01,5.0,meteohub,2013-05-12 00:27:00,
2013-05-11 20:32:00,59.7,53.4,29.76,NNW,348,0.0,3.0,49,0.00,,,0.01,0.0,meteohub,2013-05-12 00:32:00,
2013-05-11 20:37:00,59.7,53.6,29.76,NW,309,2.0,6.0,49,0.00,,,0.01,0.0,meteohub,2013-05-12 00:37:00,
2013-05-11 20:42:00,59.5,53.6,29.75,North,355,0.0,6.0,49,0.00,,,0.01,0.0,meteohub,2013-05-12 00:42:00,
2013-05-11 20:47:00,59.5,53.6,29.75,NNW,340,1.0,6.0,49,0.00,,,0.01,0.0,meteohub,2013-05-12 00:47:00,
2013-05-11 20:52:00,59.5,53.6,29.76,NNW,341,2.0,4.0,49,0.00,,,0.01,0.0,meteohub,2013-05-12 00:52:00,
2013-05-11 20:57:00,59.4,53.6,29.76,NNW,346,3.0,4.0,49,0.00,,,0.01,0.0,meteohub,2013-05-12 00:57:00,
2013-05-11 21:02:00,59.2,53.1,29.76,NNW,332,2.0,7.0,48,0.00,,,0.01,0.0,meteohub,2013-05-12 01:02:00,
2013-05-11 21:07:00,59.2,53.4,29.76,NNW,337,1.0,7.0,49,0.00,,,0.01,0.0,meteohub,2013-05-12 01:07:00,
2013-05-11 21:12:00,59.0,53.4,29.76,NNE,26,0.0,7.0,49,0.00,,,0.01,0.0,meteohub,2013-05-12 01:12:00,
2013-05-11 21:17:00,58.8,53.4,29.76,WNW,291,1.0,6.0,49,0.00,,,0.01,0.0,meteohub,2013-05-12 01:17:00,
2013-05-11 21:22:00,58.6,53.4,29.76,North,0,0.0,3.0,49,0.00,,,0.01,0.0,meteohub,2013-05-12 01:22:00,
2013-05-11 21:27:00,58.6,53.4,29.76,NNW,346,2.0,7.0,49,0.00,,,0.01,0.0,meteohub,2013-05-12 01:27:00,
2013-05-11 21:32:00,58.6,53.4,29.77,NNE,32,1.0,7.0,49,0.00,,,0.01,0.0,meteohub,2013-05-12 01:32:00,
2013-05-11 21:37:00,58.6,53.6,29.77,NNE,20,1.0,7.0,49,0.00,,,0.01,0.0,meteohub,2013-05-12 01:37:00,
2013-05-11 21:42:00,58.6,53.6,29.77,NNW,340,1.0,6.0,49,0.00,,,0.01,0.0,meteohub,2013-05-12 01:42:00,
2013-05-11 21:47:00,58.6,53.6,29.77,NE,39,1.0,6.0,49,0.00,,,0.01,0.0,meteohub,2013-05-12 01:47:00,
2013-05-11 21:52:00,58.6,53.6,29.77,WNW,289,2.0,6.0,49,0.00,,,0.01,0.0,meteohub,2013-05-12 01:52:00,
2013-05-11 21:57:00,58.8,53.6,29.77,West,280,1.0,5.0,49,0.00,,,0.01,0.0,meteohub,2013-05-12 01:57:00,
2013-05-11 22:02:00,58.8,53.1,29.77,NW,311,1.0,5.0,48,0.00,,,0.01,0.0,meteohub,2013-05-12 02:02:00,
2013-05-11 22:07:00,58.6,53.4,29.77,West,269,6.0,6.0,49,0.00,,,0.01,0.0,meteohub,2013-05-12 02:07:00,
2013-05-11 22:12:00,58.8,53.4,29.78,West,263,1.0,11.0,49,0.00,,,0.01,0.0,meteohub,2013-05-12 02:12:00,
2013-05-11 22:17:00,58.8,53.4,29.78,NW,304,3.0,11.0,49,0.00,,,0.01,0.0,meteohub,2013-05-12 02:17:00,
2013-05-11 22:22:00,59.0,53.4,29.78,West,275,0.0,11.0,49,0.00,,,0.01,0.0,meteohub,2013-05-12 02:22:00,
2013-05-11 22:27:00,59.0,53.4,29.78,WNW,292,7.0,9.0,49,0.00,,,0.01,0.0,meteohub,2013-05-12 02:27:00,
2013-05-11 22:32:00,58.8,53.4,29.78,West,269,10.0,12.0,49,0.00,,,0.01,0.0,meteohub,2013-05-12 02:32:00,
2013-05-11 22:37:00,58.8,53.6,29.79,WSW,253,4.0,12.0,49,0.00,,,0.01,0.0,meteohub,2013-05-12 02:37:00,
2013-05-11 22:42:00,58.6,53.6,29.79,West,277,5.0,12.0,49,0.00,,,0.01,0.0,meteohub,2013-05-12 02:42:00,
2013-05-11 22:47:00,58.6,53.6,29.79,WNW,285,4.0,11.0,49,0.00,,,0.01,0.0,meteohub,2013-05-12 02:47:00,
2013-05-11 22:52:00,58.5,53.6,29.80,WNW,292,3.0,11.0,49,0.00,,,0.01,0.0,meteohub,2013-05-12 02:52:00,
2013-05-11 22:57:00,58.3,53.1,29.79,West,275,8.0,14.0,48,0.00,,,0.01,0.0,meteohub,2013-05-12 02:57:00,
2013-05-11 23:02:00,57.9,53.4,29.80,West,279,1.0,14.0,49,0.00,,,0.01,0.0,meteohub,2013-05-12 03:02:00,
2013-05-11 23:07:00,57.7,53.4,29.80,WSW,255,1.0,14.0,49,0.00,,,0.01,0.0,meteohub,2013-05-12 03:07:00,
2013-05-11 23:12:00,57.4,53.4,29.80,NW,319,4.0,12.0,49,0.00,,,0.01,0.0,meteohub,2013-05-12 03:12:00,
2013-05-11 23:17:00,57.2,53.4,29.80,WNW,296,1.0,14.0,49,0.00,,,0.01,0.0,meteohub,2013-05-12 03:17:00,
2013-05-11 23:22:00,56.8,53.4,29.80,NW,304,3.0,14.0,49,0.00,,,0.01,0.0,meteohub,2013-05-12 03:22:00,
2013-05-11 23:27:00,56.7,53.4,29.80,NW,319,4.0,8.0,49,0.00,,,0.01,0.0,meteohub,2013-05-12 03:27:00,
2013-05-11 23:32:00,56.5,53.4,29.80,West,275,2.0,8.0,49,0.00,,,0.01,0.0,meteohub,2013-05-12 03:32:00,
2013-05-11 23:37:00,56.1,53.6,29.81,NW,305,3.0,8.0,49,0.00,,,0.01,0.0,meteohub,2013-05-12 03:37:00,
2013-05-11 23:42:00,55.9,53.6,29.81,West,281,5.0,8.0,49,0.00,,,0.01,0.0,meteohub,2013-05-12 03:42:00,
2013-05-11 23:47:00,55.9,53.1,29.81,WSW,249,5.0,13.0,48,0.00,,,0.01,0.0,meteohub,2013-05-12 03:47:00,
2013-05-11 23:52:00,55.8,53.1,29.81,WSW,253,6.0,13.0,48,0.00,,,0.01,0.0,meteohub,2013-05-12 03:52:00,
2013-05-11 23:57:00,55.8,53.1,29.81,WNW,296,7.0,13.0,48,0.00,,,0.01,0.0,meteohub,2013-05-12 03:57:00,